Weather History for KN60 - December, 2013

Change the Weather History Date:

Sunday, December 8, 2013

  Actual Average Record
Temperature  
Mean Temperature -9 °F -  
Max Temperature -3 °F 28 °F 41 °F (2006)
Min Temperature -15 °F 12 °F -15 °F (2013)
Degree Days  
Heating Degree Days 74    
Month to date heating degree days 500  
Moisture  
Dew Point -13 °F    
Average Humidity 78    
Maximum Humidity 87    
Minimum Humidity 68    
Precipitation  
Precipitation 0.05 in - - ()
Month to date precipitation 0.77  
Year to date precipitation 29.99  
Sea Level Pressure  
Sea Level Pressure 30.21 in    
Wind  
Wind Speed 7 mph (West)    
Max Wind Speed 17 mph    
Max Gust Speed 21 mph    
Averages and records for this station are not official NWS values.
T = Trace of Precipitation, MM = Missing Value Source: NWS Daily Summary

Daily Weather History Graph

Daily Weather History Graph

Search for Another Location

Airport or City:

Trip Planner

Search our weather history database for the weather conditions in past years. The results will help you decide how hot, cold, wet, or windy it might be!

Date:

Astronomy

Dec. 08, 2013 Rise Set
Actual Time 8:21 AM CST 4:54 PM CST
Civil Twilight 7:45 AM CST 5:29 PM CST
Nautical Twilight 7:06 AM CST 6:08 PM CST
Astronomical Twilight 6:29 AM CST 6:46 PM CST
Moon 12:22 PM CST (12/8) No Moon Set
Length of Visible Light 9h 44m
Length of Day
8h 32m
Waxing Crescent, 40% of the Moon is Illuminated
Dec 8
Waxing Crescent
Dec 9
First Quarter
Dec 17
Full
Dec 25
Last Quarter
Jan 1
New

Hourly Weather History & Observations

Time (CST) Temp. Windchill Dew Point Humidity Pressure Visibility Wind Dir Wind Speed Gust Speed Precip Events Conditions
12:52 AM -11.0 °F -26.2 °F -14.1 °F 86% 30.40 in - West 6.9 mph - N/A   Unknown
1:52 AM -9.9 °F -24.9 °F -14.1 °F 82% 30.36 in - West 6.9 mph - 0.01 in   Unknown
2:52 AM -11.9 °F -28.7 °F -16.1 °F 82% 30.34 in - West 8.1 mph - N/A   Unknown
3:52 AM -13.0 °F -30.0 °F -17.0 °F 82% 30.32 in - WNW 8.1 mph - N/A   Unknown
4:52 AM -13.0 °F - -17.0 °F 82% 30.30 in - Calm Calm - N/A   Unknown
5:52 AM -14.1 °F - -18.0 °F 82% 30.27 in - Calm Calm - N/A   Unknown
6:52 AM -11.9 °F - -16.1 °F 82% 30.25 in - Calm Calm - N/A   Unknown
7:52 AM -9.0 °F -18.2 °F -13.0 °F 83% 30.23 in - WSW 3.5 mph - N/A   Unknown
8:52 AM -6.0 °F -21.5 °F -9.9 °F 83% 30.21 in - SW 8.1 mph - 0.02 in   Unknown
9:52 AM -6.0 °F -26.3 °F -9.0 °F 87% 30.20 in - SSW 13.8 mph - 0.01 in   Unknown
10:52 AM -6.0 °F -25.5 °F -9.9 °F 83% 30.19 in - WSW 12.7 mph - 0.01 in   Unknown
11:52 AM -6.0 °F -23.6 °F -11.0 °F 79% 30.16 in - WSW 10.4 mph - N/A   Unknown
12:52 PM -4.0 °F -22.1 °F -9.9 °F 76% 30.13 in - WSW 11.5 mph - N/A   Unknown
1:52 PM -2.9 °F -17.7 °F -9.0 °F 75% 30.09 in - West 8.1 mph - N/A   Unknown
2:52 PM -2.9 °F -19.8 °F -9.9 °F 72% 30.09 in - West 10.4 mph - N/A   Unknown
3:52 PM -4.0 °F -17.8 °F -11.9 °F 69% 30.11 in - WNW 6.9 mph - N/A   Unknown
4:52 PM -5.1 °F -25.1 °F -13.0 °F 69% 30.13 in - WNW 13.8 mph 20.7 mph N/A   Unknown
5:52 PM -9.0 °F -25.2 °F -15.0 °F 75% 30.16 in - WNW 8.1 mph - N/A   Unknown
6:52 PM -9.0 °F -23.8 °F -14.1 °F 79% 30.16 in - WNW 6.9 mph - N/A   Unknown
7:52 PM -8.0 °F -27.1 °F -13.0 °F 79% 30.17 in - West 11.5 mph - N/A   Unknown
8:52 PM -6.0 °F -30.2 °F -11.9 °F 75% 30.17 in - NW 20.7 mph - N/A   Unknown
9:52 PM -8.0 °F -29.6 °F -14.1 °F 75% 30.19 in - WNW 15.0 mph - N/A   Unknown
10:52 PM -9.9 °F -30.5 °F -15.0 °F 78% 30.19 in - WNW 12.7 mph - N/A   Unknown
11:52 PM -9.0 °F -32.4 °F -15.0 °F 75% 30.20 in - WNW 17.3 mph - N/A   Unknown